Location: Newark
(43.4306°N, 0.3089°E)
Time: 06:11:52
(UTC+00:00)

S-56A Canister/Altair - Pass Details

Date: 28 August 2019
Orbit: 633 x 2499 km, 38.9° (Epoch: 17 September)

Event Time Altitude Azimuth Distance (km) Brightness Sun altitude
Rises 20:54:20 0° 259° (W) 3,489 11.5 -22.3°
Reaches altitude 10° 20:57:12 10° 254° (WSW) 2,350 10.4 -22.7°
Enters shadow 21:01:49 49° 198° (SSW) 877 7.6 -23.3°
Maximum altitude 21:02:13 50° 180° (S) 852 - -23.4°
Drops below altitude 10° 21:06:30 10° 104° (ESE) 2,009 - -24.0°
Sets 21:08:47 0° 99° (E) 2,928 - -24.3°
